Los Alamitos, CA

3:57 AM PDT on September 26, 2016 (GMT -0700)
Los Alamitos Army Air Field

Weather History for KSLI - March, 2013

Change the Weather History Date:

Wednesday, March 6, 2013

  Actual Average Record
Temperature  
Mean Temperature 54 °F -  
Max Temperature 63 °F 67 °F 86 °F (2015)
Min Temperature 45 °F 52 °F 44 °F (2009)
Degree Days  
Heating Degree Days 11    
Growing Degree Days 4 (Base 50)    
Moisture  
Dew Point 47 °F    
Average Humidity 74    
Maximum Humidity 100    
Minimum Humidity 46    
Precipitation  
Precipitation 0.00 in - - ()
Sea Level Pressure  
Sea Level Pressure 30.10 in    
Wind  
Wind Speed 6 mph (SW)    
Max Wind Speed 10 mph    
Max Gust Speed -    
Visibility 10 miles    
Events      
Averages and records for this station are not official NWS values.
T = Trace of Precipitation, MM = Missing Value Source: NWS Daily Summary

Daily Weather History Graph

Daily Weather History Graph

Search for Another Location

Airport or City:

Trip Planner

Search our weather history database for the weather conditions in past years. The results will help you decide how hot, cold, wet, or windy it might be!

Date:

Astronomy

Mar. 06, 2013 Rise Set
Actual Time 6:14 AM PST 5:53 PM PST
Civil Twilight 5:49 AM PST 6:18 PM PST
Nautical Twilight 5:20 AM PST 6:47 PM PST
Astronomical Twilight 4:51 AM PST 7:15 PM PST
Moon 2:15 AM PST (3/6) 12:51 PM PST (3/6)
Length of Visible Light 12h 29m
Length of Day
11h 39m
Waning Crescent, 29% of the Moon is Illuminated
Mar 6
Waning Crescent
Mar 11
New
Mar 19
First Quarter
Mar 27
Full
Apr 2
Last Quarter

Hourly Weather History & Observations

Time (PST) Temp. Dew Point Humidity Pressure Visibility Wind Dir Wind Speed Gust Speed Precip Events Conditions
12:13 AM 53.6 °F 48.2 °F 82% 30.14 in 10.0 mi WSW 6.9 mph - N/A   Overcast
12:58 AM 53.2 °F 46.0 °F 77% 30.15 in 10.0 mi SW 9.2 mph - N/A   Overcast
1:58 AM 52.9 °F 44.2 °F 72% 30.14 in 10.0 mi WSW 6.9 mph - N/A   Overcast
2:33 AM 51.8 °F 44.6 °F 76% 30.12 in 10.0 mi SW 5.8 mph - N/A   Overcast
2:58 AM 51.8 °F 44.4 °F 76% 30.13 in 10.0 mi WSW 6.9 mph - N/A   Overcast
3:58 AM 50.7 °F 44.8 °F 80% 30.14 in 10.0 mi WSW 4.6 mph - N/A   Overcast
4:58 AM 48.7 °F 45.0 °F 87% 30.14 in 10.0 mi Calm Calm - N/A   Partly Cloudy
5:58 AM 45.7 °F 45.0 °F 97% 30.15 in 10.0 mi Calm Calm - N/A   Clear
6:58 AM 47.3 °F 46.9 °F 99% 30.15 in 10.0 mi East 2.3 mph - N/A   Partly Cloudy
7:58 AM 54.3 °F 45.3 °F 72% 30.17 in 10.0 mi North 2.3 mph - N/A   Partly Cloudy
8:58 AM 56.8 °F 44.1 °F 62% 30.17 in 10.0 mi East 3.5 mph - N/A   Partly Cloudy
9:58 AM 60.4 °F 42.8 °F 52% 30.16 in 10.0 mi ESE 6.9 mph - N/A   Mostly Cloudy
10:58 AM 62.1 °F 42.8 °F 49% 30.15 in 10.0 mi ENE 3.5 mph - N/A   Scattered Clouds
11:58 AM 62.8 °F 42.4 °F 47% 30.14 in 10.0 mi SW 10.4 mph - N/A   Partly Cloudy
12:58 PM 62.6 °F 42.1 °F 47% 30.11 in 10.0 mi SSW 8.1 mph - N/A   Scattered Clouds
1:58 PM 63.1 °F 42.3 °F 46% 30.09 in 10.0 mi SSW 10.4 mph - N/A   Partly Cloudy
2:58 PM 61.2 °F 43.3 °F 52% 30.07 in 10.0 mi SW 10.4 mph - N/A   Scattered Clouds
3:58 PM 61.5 °F 44.6 °F 54% 30.06 in 10.0 mi SW 10.4 mph - N/A   Scattered Clouds
4:58 PM 59.4 °F 46.6 °F 63% 30.05 in 10.0 mi SW 10.4 mph - N/A   Overcast
5:58 PM 58.3 °F 47.5 °F 67% 30.05 in 10.0 mi SW 9.2 mph - N/A   Mostly Cloudy
6:58 PM 57.4 °F 46.8 °F 68% 30.06 in 10.0 mi WNW 5.8 mph - N/A   Overcast
7:58 PM 56.8 °F 48.7 °F 74% 30.05 in 10.0 mi NNW 4.6 mph - N/A   Overcast
8:58 PM 56.5 °F 50.5 °F 80% 30.05 in 10.0 mi Calm Calm - N/A   Overcast
9:37 PM 55.4 °F 51.8 °F 88% 30.05 in 10.0 mi SSW 9.2 mph - N/A   Light Drizzle
9:58 PM 53.6 °F 53.6 °F 100% 30.06 in 10.0 mi SSW 4.6 mph - 0.00 in   Light Drizzle
9:59 PM 53.6 °F 53.6 °F 100% 30.05 in 10.0 mi SSW 5.8 mph - N/A   Overcast
10:58 PM 53.2 °F 53.2 °F 100% 30.04 in 10.0 mi East 2.3 mph - N/A   Overcast
11:58 PM 54.0 °F 54.0 °F 100% 30.03 in 10.0 mi Calm Calm - N/A   Overcast